Track FLOCK 3K 7 now! 10-day predictions FLOCK 3K 7 is classified as:
1 43902U 18111AC 22136.26279372 .00013786 00000-0 38592-3 0 9997 2 43902 97.1984 27.5809 0016647 172.7236 187.4253 15.36610027188638